Time,TemperatureF,DewpointF,PressureIn,WindDirection,WindDirectionDegrees,WindSpeedMPH,WindSpeedGustMPH,Humidity,HourlyPrecipIn,Conditions,Clouds,dailyrainin,SoftwareType,DateUTC
2013-01-05 00:00:00,31.6,21.6,30.26,East,83,0.0,0.0,66,0.00,,,0.00,WUHU216DAVISVP2,2013-01-05 05:00:00,
2013-01-05 00:01:00,31.6,21.6,30.26,East,83,0.0,0.0,66,0.00,,,0.00,WUHU216DAVISVP2,2013-01-05 05:01:00,
2013-01-05 00:06:00,31.3,21.3,30.26,East,83,0.0,0.0,66,0.00,,,0.00,WUHU216DAVISVP2,2013-01-05 05:06:00,
2013-01-05 00:11:00,31.2,21.6,30.26,East,83,0.0,0.0,67,0.00,,,0.00,WUHU216DAVISVP2,2013-01-05 05:11:00,
2013-01-05 00:16:00,31.0,21.4,30.26,East,83,0.0,0.0,67,0.00,,,0.00,WUHU216DAVISVP2,2013-01-05 05:16:00,
2013-01-05 00:21:00,30.7,21.0,30.26,East,83,0.0,0.0,67,0.00,,,0.00,WUHU216DAVISVP2,2013-01-05 05:21:00,
2013-01-05 00:26:00,30.6,20.9,30.26,East,83,0.0,0.0,67,0.00,,,0.00,WUHU216DAVISVP2,2013-01-05 05:26:00,
2013-01-05 00:31:00,30.3,21.1,30.25,East,83,0.0,0.0,68,0.00,,,0.00,WUHU216DAVISVP2,2013-01-05 05:31:00,
2013-01-05 00:36:00,30.1,21.2,30.25,East,83,0.0,0.0,69,0.00,,,0.00,WUHU216DAVISVP2,2013-01-05 05:36:00,
2013-01-05 00:41:00,29.8,20.9,30.25,East,83,0.0,1.0,69,0.00,,,0.00,WUHU216DAVISVP2,2013-01-05 05:41:00,
2013-01-05 00:46:00,29.7,21.2,30.25,East,83,0.0,1.0,70,0.00,,,0.00,WUHU216DAVISVP2,2013-01-05 05:46:00,
2013-01-05 00:51:00,29.5,20.9,30.25,East,83,0.0,0.0,70,0.00,,,0.00,WUHU216DAVISVP2,2013-01-05 05:51:00,
2013-01-05 00:56:00,29.4,20.9,30.25,East,83,0.0,0.0,70,0.00,,,0.00,WUHU216DAVISVP2,2013-01-05 05:56:00,
2013-01-05 01:01:00,29.1,20.6,30.26,East,83,0.0,0.0,70,0.00,,,0.00,WUHU216DAVISVP2,2013-01-05 06:01:00,
2013-01-05 01:06:00,29.0,20.8,30.26,East,83,0.0,0.0,71,0.00,,,0.00,WUHU216DAVISVP2,2013-01-05 06:06:00,
2013-01-05 01:11:00,28.8,20.6,30.26,East,83,0.0,0.0,71,0.00,,,0.00,WUHU216DAVISVP2,2013-01-05 06:11:00,
2013-01-05 01:16:00,29.0,21.2,30.26,East,83,0.0,0.0,72,0.00,,,0.00,WUHU216DAVISVP2,2013-01-05 06:16:00,
2013-01-05 01:21:00,29.0,21.2,30.26,East,83,1.0,1.0,72,0.00,,,0.00,WUHU216DAVISVP2,2013-01-05 06:21:00,
2013-01-05 01:26:00,29.0,21.2,30.26,East,83,0.0,1.0,72,0.00,,,0.00,WUHU216DAVISVP2,2013-01-05 06:26:00,
2013-01-05 01:31:00,29.1,21.3,30.26,East,83,0.0,1.0,72,0.00,,,0.00,WUHU216DAVISVP2,2013-01-05 06:31:00,
2013-01-05 01:36:00,29.3,21.4,30.26,East,83,0.0,1.0,72,0.00,,,0.00,WUHU216DAVISVP2,2013-01-05 06:36:00,
2013-01-05 01:41:00,29.3,21.4,30.26,East,83,0.0,0.0,72,0.00,,,0.00,WUHU216DAVISVP2,2013-01-05 06:41:00,
2013-01-05 01:46:00,29.1,21.2,30.26,East,83,0.0,0.0,72,0.00,,,0.00,WUHU216DAVISVP2,2013-01-05 06:46:00,
2013-01-05 01:51:00,29.0,21.2,30.26,East,83,0.0,0.0,72,0.00,,,0.00,WUHU216DAVISVP2,2013-01-05 06:51:00,
2013-01-05 01:56:00,29.1,21.3,30.26,East,83,0.0,1.0,72,0.00,,,0.00,WUHU216DAVISVP2,2013-01-05 06:56:00,
2013-01-05 02:01:00,29.3,21.4,30.26,East,83,0.0,1.0,72,0.00,,,0.00,WUHU216DAVISVP2,2013-01-05 07:01:00,
2013-01-05 02:06:00,29.3,21.4,30.26,ESE,110,0.0,2.0,72,0.00,,,0.00,WUHU216DAVISVP2,2013-01-05 07:06:00,
2013-01-05 02:11:00,29.3,21.4,30.26,ESE,110,0.0,2.0,72,0.00,,,0.00,WUHU216DAVISVP2,2013-01-05 07:11:00,
2013-01-05 02:16:00,29.1,21.3,30.26,ESE,110,0.0,0.0,72,0.00,,,0.00,WUHU216DAVISVP2,2013-01-05 07:16:00,
2013-01-05 02:21:00,29.0,21.2,30.26,ESE,110,0.0,0.0,72,0.00,,,0.00,WUHU216DAVISVP2,2013-01-05 07:21:00,
2013-01-05 02:26:00,28.8,21.0,30.26,ESE,102,0.0,2.0,72,0.00,,,0.00,WUHU216DAVISVP2,2013-01-05 07:26:00,
2013-01-05 02:31:00,28.7,20.9,30.26,ESE,102,0.0,2.0,72,0.00,,,0.00,WUHU216DAVISVP2,2013-01-05 07:31:00,
2013-01-05 02:36:00,28.5,21.0,30.26,ESE,102,0.0,0.0,73,0.00,,,0.00,WUHU216DAVISVP2,2013-01-05 07:36:00,
2013-01-05 02:41:00,28.4,20.9,30.26,ESE,102,0.0,0.0,73,0.00,,,0.00,WUHU216DAVISVP2,2013-01-05 07:41:00,
2013-01-05 02:46:00,28.4,21.2,30.27,ESE,102,0.0,0.0,74,0.00,,,0.00,WUHU216DAVISVP2,2013-01-05 07:46:00,
2013-01-05 02:51:00,28.1,20.9,30.27,ESE,102,0.0,0.0,74,0.00,,,0.00,WUHU216DAVISVP2,2013-01-05 07:51:00,
2013-01-05 02:56:00,28.1,20.9,30.27,ESE,102,0.0,0.0,74,0.00,,,0.00,WUHU216DAVISVP2,2013-01-05 07:56:00,
2013-01-05 03:01:00,28.1,20.9,30.27,ESE,102,0.0,0.0,74,0.00,,,0.00,WUHU216DAVISVP2,2013-01-05 08:01:00,
2013-01-05 03:06:00,27.9,21.0,30.27,ESE,102,0.0,0.0,75,0.00,,,0.00,WUHU216DAVISVP2,2013-01-05 08:06:00,
2013-01-05 03:11:00,27.9,21.0,30.27,ESE,102,0.0,0.0,75,0.00,,,0.00,WUHU216DAVISVP2,2013-01-05 08:11:00,
2013-01-05 03:16:00,27.8,20.9,30.28,ESE,102,0.0,0.0,75,0.00,,,0.00,WUHU216DAVISVP2,2013-01-05 08:16:00,
2013-01-05 03:21:00,27.8,20.9,30.28,ESE,102,0.0,0.0,75,0.00,,,0.00,WUHU216DAVISVP2,2013-01-05 08:21:00,
2013-01-05 03:26:00,27.8,20.9,30.28,ESE,102,0.0,0.0,75,0.00,,,0.00,WUHU216DAVISVP2,2013-01-05 08:26:00,
2013-01-05 03:31:00,27.6,20.7,30.28,ESE,102,0.0,0.0,75,0.00,,,0.00,WUHU216DAVISVP2,2013-01-05 08:31:00,
2013-01-05 03:36:00,27.6,20.7,30.28,ESE,102,0.0,0.0,75,0.00,,,0.00,WUHU216DAVISVP2,2013-01-05 08:36:00,
2013-01-05 03:41:00,27.5,20.7,30.28,ESE,102,0.0,0.0,75,0.00,,,0.00,WUHU216DAVISVP2,2013-01-05 08:41:00,
2013-01-05 03:46:00,27.3,20.4,30.28,ESE,102,0.0,0.0,75,0.00,,,0.00,WUHU216DAVISVP2,2013-01-05 08:46:00,
2013-01-05 03:51:00,27.3,20.5,30.28,ESE,102,0.0,0.0,75,0.00,,,0.00,WUHU216DAVISVP2,2013-01-05 08:51:00,
2013-01-05 03:56:00,27.3,20.8,30.28,ESE,102,0.0,0.0,76,0.00,,,0.00,WUHU216DAVISVP2,2013-01-05 08:56:00,
2013-01-05 04:01:00,27.2,20.7,30.29,ESE,102,0.0,0.0,76,0.00,,,0.00,WUHU216DAVISVP2,2013-01-05 09:01:00,
2013-01-05 04:06:00,27.2,20.6,30.29,ESE,102,0.0,0.0,76,0.00,,,0.00,WUHU216DAVISVP2,2013-01-05 09:06:00,
2013-01-05 04:11:00,27.0,20.4,30.29,ESE,102,0.0,0.0,76,0.00,,,0.00,WUHU216DAVISVP2,2013-01-05 09:11:00,
2013-01-05 04:16:00,26.9,20.4,30.29,ESE,102,0.0,0.0,76,0.00,,,0.00,WUHU216DAVISVP2,2013-01-05 09:16:00,
2013-01-05 04:21:00,26.9,20.7,30.29,ESE,102,0.0,1.0,77,0.00,,,0.00,WUHU216DAVISVP2,2013-01-05 09:21:00,
2013-01-05 04:26:00,26.9,20.7,30.29,ESE,102,0.0,1.0,77,0.00,,,0.00,WUHU216DAVISVP2,2013-01-05 09:26:00,
2013-01-05 04:31:00,26.9,20.7,30.29,ESE,102,0.0,0.0,77,0.00,,,0.00,WUHU216DAVISVP2,2013-01-05 09:31:00,
2013-01-05 04:36:00,26.7,20.5,30.29,ESE,102,0.0,0.0,77,0.00,,,0.00,WUHU216DAVISVP2,2013-01-05 09:36:00,
2013-01-05 04:41:00,26.7,20.5,30.29,ESE,102,0.0,0.0,77,0.00,,,0.00,WUHU216DAVISVP2,2013-01-05 09:41:00,
2013-01-05 04:46:00,26.6,20.4,30.29,ESE,102,0.0,0.0,77,0.00,,,0.00,WUHU216DAVISVP2,2013-01-05 09:46:00,
2013-01-05 04:51:00,26.6,20.4,30.29,ESE,102,0.0,0.0,77,0.00,,,0.00,WUHU216DAVISVP2,2013-01-05 09:51:00,
2013-01-05 04:56:00,26.6,20.4,30.29,ESE,102,0.0,0.0,77,0.00,,,0.00,WUHU216DAVISVP2,2013-01-05 09:56:00,
2013-01-05 05:01:00,26.4,20.2,30.29,ESE,102,0.0,0.0,77,0.00,,,0.00,WUHU216DAVISVP2,2013-01-05 10:01:00,
2013-01-05 05:06:00,26.4,20.2,30.29,ESE,102,0.0,0.0,77,0.00,,,0.00,WUHU216DAVISVP2,2013-01-05 10:06:00,
2013-01-05 05:11:00,26.4,20.2,30.29,ESE,102,0.0,0.0,77,0.00,,,0.00,WUHU216DAVISVP2,2013-01-05 10:11:00,
2013-01-05 05:16:00,26.3,20.1,30.30,ESE,102,0.0,0.0,77,0.00,,,0.00,WUHU216DAVISVP2,2013-01-05 10:16:00,
2013-01-05 05:21:00,26.3,20.4,30.30,ESE,102,0.0,0.0,78,0.00,,,0.00,WUHU216DAVISVP2,2013-01-05 10:21:00,
2013-01-05 05:26:00,26.1,20.2,30.30,ESE,102,0.0,0.0,78,0.00,,,0.00,WUHU216DAVISVP2,2013-01-05 10:26:00,
2013-01-05 05:31:00,26.1,20.2,30.30,ESE,102,0.0,0.0,78,0.00,,,0.00,WUHU216DAVISVP2,2013-01-05 10:31:00,
2013-01-05 05:36:00,26.0,20.1,30.30,ESE,102,0.0,0.0,78,0.00,,,0.00,WUHU216DAVISVP2,2013-01-05 10:36:00,
2013-01-05 05:41:00,26.0,20.1,30.30,ESE,102,0.0,0.0,78,0.00,,,0.00,WUHU216DAVISVP2,2013-01-05 10:41:00,
2013-01-05 05:46:00,26.1,20.5,30.31,ESE,102,0.0,0.0,79,0.00,,,0.00,WUHU216DAVISVP2,2013-01-05 10:46:00,
2013-01-05 05:51:00,26.1,20.5,30.31,ESE,102,0.0,0.0,79,0.00,,,0.00,WUHU216DAVISVP2,2013-01-05 10:51:00,
2013-01-05 05:56:00,26.1,20.5,30.31,ESE,102,0.0,0.0,79,0.00,,,0.00,WUHU216DAVISVP2,2013-01-05 10:56:00,
2013-01-05 06:01:00,26.1,20.5,30.31,ESE,102,0.0,0.0,79,0.00,,,0.00,WUHU216DAVISVP2,2013-01-05 11:01:00,
2013-01-05 06:06:00,26.1,20.5,30.31,ESE,102,0.0,0.0,79,0.00,,,0.00,WUHU216DAVISVP2,2013-01-05 11:06:00,
2013-01-05 06:11:00,26.1,20.5,30.31,ESE,102,0.0,1.0,79,0.00,,,0.00,WUHU216DAVISVP2,2013-01-05 11:11:00,
2013-01-05 06:16:00,26.1,20.5,30.33,ESE,102,0.0,1.0,79,0.00,,,0.00,WUHU216DAVISVP2,2013-01-05 11:16:00,
2013-01-05 06:21:00,26.1,20.5,30.33,NNW,342,1.0,4.0,79,0.00,,,0.00,WUHU216DAVISVP2,2013-01-05 11:21:00,
2013-01-05 06:26:00,26.4,21.1,30.33,NNW,342,0.0,4.0,80,0.00,,,0.00,WUHU216DAVISVP2,2013-01-05 11:26:00,
2013-01-05 06:31:00,26.9,21.3,30.31,NNW,342,0.0,1.0,79,0.00,,,0.00,WUHU216DAVISVP2,2013-01-05 11:31:00,
2013-01-05 06:36:00,26.7,21.1,30.31,NNW,342,0.0,0.0,79,0.00,,,0.00,WUHU216DAVISVP2,2013-01-05 11:36:00,
2013-01-05 06:41:00,26.6,21.0,30.31,NNW,342,0.0,0.0,79,0.00,,,0.00,WUHU216DAVISVP2,2013-01-05 11:41:00,
2013-01-05 06:46:00,26.6,21.0,30.31,NNW,342,0.0,0.0,79,0.00,,,0.00,WUHU216DAVISVP2,2013-01-05 11:46:00,
2013-01-05 06:51:00,26.4,20.8,30.31,NNW,342,0.0,0.0,79,0.00,,,0.00,WUHU216DAVISVP2,2013-01-05 11:51:00,
2013-01-05 06:56:00,26.4,20.8,30.31,NNW,342,0.0,0.0,79,0.00,,,0.00,WUHU216DAVISVP2,2013-01-05 11:56:00,
2013-01-05 07:01:00,26.4,20.8,30.31,NNW,342,0.0,0.0,79,0.00,,,0.00,WUHU216DAVISVP2,2013-01-05 12:01:00,
2013-01-05 07:06:00,26.3,20.7,30.31,NNW,342,0.0,0.0,79,0.00,,,0.00,WUHU216DAVISVP2,2013-01-05 12:06:00,
2013-01-05 07:11:00,26.1,20.5,30.31,NNW,342,0.0,0.0,79,0.00,,,0.00,WUHU216DAVISVP2,2013-01-05 12:11:00,
2013-01-05 07:16:00,26.0,20.4,30.31,NNW,342,0.0,0.0,79,0.00,,,0.00,WUHU216DAVISVP2,2013-01-05 12:16:00,
2013-01-05 07:21:00,26.0,20.7,30.31,NNW,342,0.0,1.0,80,0.00,,,0.00,WUHU216DAVISVP2,2013-01-05 12:21:00,
2013-01-05 07:26:00,26.0,20.4,30.31,NNW,342,0.0,1.0,79,0.00,,,0.00,WUHU216DAVISVP2,2013-01-05 12:26:00,
2013-01-05 07:31:00,25.8,20.2,30.31,NNW,342,0.0,0.0,79,0.00,,,0.00,WUHU216DAVISVP2,2013-01-05 12:31:00,
2013-01-05 07:36:00,25.7,20.1,30.31,NNW,342,0.0,0.0,79,0.00,,,0.00,WUHU216DAVISVP2,2013-01-05 12:36:00,
2013-01-05 07:41:00,25.6,20.0,30.31,NNW,342,0.0,0.0,79,0.00,,,0.00,WUHU216DAVISVP2,2013-01-05 12:41:00,
2013-01-05 07:46:00,25.4,20.1,30.32,NNW,342,0.0,0.0,80,0.00,,,0.00,WUHU216DAVISVP2,2013-01-05 12:46:00,
2013-01-05 07:51:00,25.6,20.3,30.32,NNW,342,0.0,0.0,80,0.00,,,0.00,WUHU216DAVISVP2,2013-01-05 12:51:00,
2013-01-05 07:56:00,25.6,20.3,30.32,NNW,342,0.0,0.0,80,0.00,,,0.00,WUHU216DAVISVP2,2013-01-05 12:56:00,
2013-01-05 08:01:00,25.6,20.3,30.33,NNW,342,0.0,0.0,80,0.00,,,0.00,WUHU216DAVISVP2,2013-01-05 13:01:00,
2013-01-05 08:06:00,25.8,20.5,30.33,NNW,342,0.0,1.0,80,0.00,,,0.00,WUHU216DAVISVP2,2013-01-05 13:06:00,
2013-01-05 08:11:00,26.1,20.8,30.33,NNW,342,0.0,1.0,80,0.00,,,0.00,WUHU216DAVISVP2,2013-01-05 13:11:00,
2013-01-05 08:16:00,26.6,21.6,30.34,NNW,342,0.0,0.0,81,0.00,,,0.00,WUHU216DAVISVP2,2013-01-05 13:16:00,
2013-01-05 08:21:00,26.9,21.8,30.34,NNW,342,0.0,0.0,81,0.00,,,0.00,WUHU216DAVISVP2,2013-01-05 13:21:00,
2013-01-05 08:26:00,27.2,22.1,30.34,NNW,342,0.0,1.0,81,0.00,,,0.00,WUHU216DAVISVP2,2013-01-05 13:26:00,
2013-01-05 08:31:00,27.5,22.4,30.35,NNW,342,0.0,1.0,81,0.00,,,0.00,WUHU216DAVISVP2,2013-01-05 13:31:00,
2013-01-05 08:36:00,27.8,22.7,30.35,NNW,332,0.0,6.0,81,0.00,,,0.00,WUHU216DAVISVP2,2013-01-05 13:36:00,
2013-01-05 08:41:00,28.1,23.0,30.35,NNW,332,0.0,6.0,81,0.00,,,0.00,WUHU216DAVISVP2,2013-01-05 13:41:00,
2013-01-05 08:46:00,28.5,23.4,30.36,NNW,332,0.0,0.0,81,0.00,,,0.00,WUHU216DAVISVP2,2013-01-05 13:46:00,
2013-01-05 08:51:00,28.8,23.7,30.36,NNW,332,0.0,0.0,81,0.00,,,0.00,WUHU216DAVISVP2,2013-01-05 13:51:00,
2013-01-05 08:56:00,29.3,23.9,30.36,North,0,0.0,2.0,80,0.00,,,0.00,WUHU216DAVISVP2,2013-01-05 13:56:00,
2013-01-05 09:01:00,29.8,24.4,30.34,North,0,1.0,2.0,80,0.00,,,0.00,WUHU216DAVISVP2,2013-01-05 14:01:00,
2013-01-05 09:06:00,30.4,24.7,30.34,North,0,1.0,2.0,79,0.00,,,0.00,WUHU216DAVISVP2,2013-01-05 14:06:00,
2013-01-05 09:11:00,31.0,25.0,30.34,North,0,0.0,4.0,78,0.00,,,0.00,WUHU216DAVISVP2,2013-01-05 14:11:00,
2013-01-05 09:16:00,31.8,25.4,30.35,NW,325,1.0,4.0,77,0.00,,,0.00,WUHU216DAVISVP2,2013-01-05 14:16:00,
2013-01-05 09:21:00,32.5,25.8,30.35,NW,312,4.0,6.0,76,0.00,,,0.00,WUHU216DAVISVP2,2013-01-05 14:21:00,
2013-01-05 09:26:00,33.2,26.2,30.35,NNW,344,4.0,6.0,75,0.00,,,0.00,WUHU216DAVISVP2,2013-01-05 14:26:00,
2013-01-05 09:31:00,34.0,26.6,30.36,NNW,346,1.0,6.0,74,0.00,,,0.00,WUHU216DAVISVP2,2013-01-05 14:31:00,
2013-01-05 09:36:00,34.7,27.0,30.36,NNW,339,1.0,8.0,73,0.00,,,0.00,WUHU216DAVISVP2,2013-01-05 14:36:00,
2013-01-05 09:41:00,35.3,27.2,30.36,NW,309,1.0,8.0,72,0.00,,,0.00,WUHU216DAVISVP2,2013-01-05 14:41:00,
2013-01-05 09:46:00,36.0,27.6,30.37,NW,319,2.0,8.0,71,0.00,,,0.00,WUHU216DAVISVP2,2013-01-05 14:46:00,
2013-01-05 09:51:00,36.6,27.8,30.37,North,0,1.0,8.0,70,0.00,,,0.00,WUHU216DAVISVP2,2013-01-05 14:51:00,
2013-01-05 09:56:00,37.2,28.0,30.37,NW,309,0.0,8.0,69,0.00,,,0.00,WUHU216DAVISVP2,2013-01-05 14:56:00,
2013-01-05 10:01:00,37.5,28.3,30.37,North,6,1.0,8.0,69,0.00,,,0.00,WUHU216DAVISVP2,2013-01-05 15:01:00,
2013-01-05 10:06:00,37.9,28.4,30.37,North,0,2.0,8.0,68,0.00,,,0.00,WUHU216DAVISVP2,2013-01-05 15:06:00,
2013-01-05 10:11:00,38.3,28.4,30.37,WNW,296,1.0,7.0,67,0.00,,,0.00,WUHU216DAVISVP2,2013-01-05 15:11:00,
2013-01-05 10:16:00,38.6,28.3,30.37,WSW,258,0.0,7.0,66,0.00,,,0.00,WUHU216DAVISVP2,2013-01-05 15:16:00,
2013-01-05 10:21:00,39.2,28.5,30.37,NW,323,4.0,7.0,65,0.00,,,0.00,WUHU216DAVISVP2,2013-01-05 15:21:00,
2013-01-05 10:26:00,39.5,28.8,30.37,North,0,1.0,7.0,65,0.00,,,0.00,WUHU216DAVISVP2,2013-01-05 15:26:00,
2013-01-05 10:31:00,39.8,28.7,30.38,North,0,0.0,7.0,64,0.00,,,0.00,WUHU216DAVISVP2,2013-01-05 15:31:00,
2013-01-05 10:36:00,39.9,28.4,30.38,NW,322,0.0,6.0,63,0.00,,,0.00,WUHU216DAVISVP2,2013-01-05 15:36:00,
2013-01-05 10:41:00,40.2,28.7,30.38,NW,315,2.0,6.0,63,0.00,,,0.00,WUHU216DAVISVP2,2013-01-05 15:41:00,
2013-01-05 10:46:00,40.5,28.6,30.37,NW,319,1.0,6.0,62,0.00,,,0.00,WUHU216DAVISVP2,2013-01-05 15:46:00,
2013-01-05 10:51:00,40.8,28.5,30.37,NNE,17,1.0,6.0,61,0.00,,,0.00,WUHU216DAVISVP2,2013-01-05 15:51:00,
2013-01-05 10:56:00,41.1,28.7,30.37,NNE,17,0.0,4.0,61,0.00,,,0.00,WUHU216DAVISVP2,2013-01-05 15:56:00,
2013-01-05 11:01:00,41.5,28.3,30.37,North,7,0.0,2.0,59,0.00,,,0.00,WUHU216DAVISVP2,2013-01-05 16:01:00,
2013-01-05 11:06:00,41.8,28.2,30.37,ENE,76,0.0,4.0,58,0.00,,,0.00,WUHU216DAVISVP2,2013-01-05 16:06:00,
2013-01-05 11:11:00,41.9,28.7,30.37,NNE,31,2.0,4.0,59,0.00,,,0.00,WUHU216DAVISVP2,2013-01-05 16:11:00,
2013-01-05 11:16:00,42.3,28.6,30.36,NW,320,2.0,4.0,58,0.00,,,0.00,WUHU216DAVISVP2,2013-01-05 16:16:00,
2013-01-05 11:21:00,42.6,28.5,30.36,NNW,342,2.0,4.0,57,0.00,,,0.00,WUHU216DAVISVP2,2013-01-05 16:21:00,
2013-01-05 11:26:00,42.9,28.8,30.36,North,359,1.0,4.0,57,0.00,,,0.00,WUHU216DAVISVP2,2013-01-05 16:26:00,
2013-01-05 11:31:00,43.3,28.7,30.36,North,359,0.0,4.0,56,0.00,,,0.00,WUHU216DAVISVP2,2013-01-05 16:31:00,
2013-01-05 11:36:00,43.8,29.1,30.36,North,354,0.0,2.0,56,0.00,,,0.00,WUHU216DAVISVP2,2013-01-05 16:36:00,
2013-01-05 11:41:00,44.1,29.0,30.36,North,354,0.0,2.0,55,0.00,,,0.00,WUHU216DAVISVP2,2013-01-05 16:41:00,
2013-01-05 11:46:00,44.2,29.0,30.36,North,353,1.0,2.0,55,0.00,,,0.00,WUHU216DAVISVP2,2013-01-05 16:46:00,
2013-01-05 11:51:00,44.8,29.6,30.36,NNW,332,0.0,2.0,55,0.00,,,0.00,WUHU216DAVISVP2,2013-01-05 16:51:00,
2013-01-05 11:56:00,45.2,29.1,30.36,NW,326,0.0,2.0,53,0.00,,,0.00,WUHU216DAVISVP2,2013-01-05 16:56:00,
2013-01-05 12:01:00,45.7,29.1,30.34,NW,326,0.0,2.0,52,0.00,,,0.00,WUHU216DAVISVP2,2013-01-05 17:01:00,
2013-01-05 12:06:00,46.0,28.9,30.34,NNW,328,0.0,2.0,51,0.00,,,0.00,WUHU216DAVISVP2,2013-01-05 17:06:00,
2013-01-05 12:11:00,46.2,29.0,30.34,NNW,328,0.0,4.0,51,0.00,,,0.00,WUHU216DAVISVP2,2013-01-05 17:11:00,
2013-01-05 12:16:00,46.8,29.6,30.33,North,352,0.0,4.0,51,0.00,,,0.00,WUHU216DAVISVP2,2013-01-05 17:16:00,
2013-01-05 12:21:00,47.0,28.3,30.33,ENE,69,1.0,7.0,48,0.00,,,0.00,WUHU216DAVISVP2,2013-01-05 17:21:00,
2013-01-05 12:26:00,47.1,28.3,30.33,ENE,72,0.0,7.0,48,0.00,,,0.00,WUHU216DAVISVP2,2013-01-05 17:26:00,
2013-01-05 12:31:00,47.3,28.0,30.32,East,89,2.0,4.0,47,0.00,,,0.00,WUHU216DAVISVP2,2013-01-05 17:31:00,
2013-01-05 12:36:00,47.6,28.3,30.32,East,89,0.0,4.0,47,0.00,,,0.00,WUHU216DAVISVP2,2013-01-05 17:36:00,
2013-01-05 12:41:00,48.0,28.6,30.32,East,88,1.0,4.0,47,0.00,,,0.00,WUHU216DAVISVP2,2013-01-05 17:41:00,
2013-01-05 12:46:00,48.2,28.8,30.31,East,88,0.0,4.0,47,0.00,,,0.00,WUHU216DAVISVP2,2013-01-05 17:46:00,
2013-01-05 12:51:00,48.6,29.2,30.31,East,93,1.0,2.0,47,0.00,,,0.00,WUHU216DAVISVP2,2013-01-05 17:51:00,
2013-01-05 12:56:00,48.8,28.3,30.31,East,97,1.0,2.0,45,0.00,,,0.00,WUHU216DAVISVP2,2013-01-05 17:56:00,
2013-01-05 13:01:00,49.5,28.9,30.30,ESE,104,0.0,2.0,45,0.00,,,0.00,WUHU216DAVISVP2,2013-01-05 18:01:00,
2013-01-05 13:06:00,49.5,28.4,30.30,East,93,0.0,4.0,44,0.00,,,0.00,WUHU216DAVISVP2,2013-01-05 18:06:00,
2013-01-05 13:11:00,49.8,28.6,30.30,SSE,147,0.0,4.0,44,0.00,,,0.00,WUHU216DAVISVP2,2013-01-05 18:11:00,
2013-01-05 13:16:00,50.2,28.4,30.29,SE,144,2.0,2.0,43,0.00,,,0.00,WUHU216DAVISVP2,2013-01-05 18:16:00,
2013-01-05 13:21:00,50.1,27.1,30.29,East,88,0.0,6.0,41,0.00,,,0.00,WUHU216DAVISVP2,2013-01-05 18:21:00,
2013-01-05 13:26:00,49.6,26.7,30.29,East,85,0.0,6.0,41,0.00,,,0.00,WUHU216DAVISVP2,2013-01-05 18:26:00,
2013-01-05 13:31:00,49.6,26.7,30.28,ENE,69,1.0,7.0,41,0.00,,,0.00,WUHU216DAVISVP2,2013-01-05 18:31:00,
2013-01-05 13:36:00,49.5,26.6,30.28,East,82,1.0,7.0,41,0.00,,,0.00,WUHU216DAVISVP2,2013-01-05 18:36:00,
2013-01-05 13:41:00,49.4,26.5,30.28,East,88,0.0,8.0,41,0.00,,,0.00,WUHU216DAVISVP2,2013-01-05 18:41:00,
2013-01-05 13:46:00,49.6,26.1,30.29,East,88,0.0,8.0,40,0.00,,,0.00,WUHU216DAVISVP2,2013-01-05 18:46:00,
2013-01-05 13:51:00,49.8,26.3,30.29,NNW,346,1.0,2.0,40,0.00,,,0.00,WUHU216DAVISVP2,2013-01-05 18:51:00,
2013-01-05 13:56:00,49.9,27.0,30.29,NNW,346,0.0,2.0,41,0.00,,,0.00,WUHU216DAVISVP2,2013-01-05 18:56:00,
2013-01-05 14:01:00,49.6,24.8,30.28,East,85,1.0,8.0,38,0.00,,,0.00,WUHU216DAVISVP2,2013-01-05 19:01:00,
2013-01-05 14:06:00,49.5,25.4,30.28,East,85,0.0,8.0,39,0.00,,,0.00,WUHU216DAVISVP2,2013-01-05 19:06:00,
2013-01-05 14:11:00,49.6,24.8,30.28,East,92,1.0,4.0,38,0.00,,,0.00,WUHU216DAVISVP2,2013-01-05 19:11:00,
2013-01-05 14:16:00,49.6,24.2,30.27,East,88,2.0,4.0,37,0.00,,,0.00,WUHU216DAVISVP2,2013-01-05 19:16:00,
2013-01-05 14:21:00,49.6,24.2,30.27,East,90,2.0,7.0,37,0.00,,,0.00,WUHU216DAVISVP2,2013-01-05 19:21:00,
2013-01-05 14:26:00,49.9,25.7,30.27,East,83,0.0,7.0,39,0.00,,,0.00,WUHU216DAVISVP2,2013-01-05 19:26:00,
2013-01-05 14:31:00,49.9,25.7,30.27,East,83,2.0,6.0,39,0.00,,,0.00,WUHU216DAVISVP2,2013-01-05 19:31:00,
2013-01-05 14:36:00,49.6,25.4,30.27,East,82,0.0,2.0,39,0.00,,,0.00,WUHU216DAVISVP2,2013-01-05 19:36:00,
2013-01-05 14:41:00,49.8,25.6,30.27,East,83,0.0,2.0,39,0.00,,,0.00,WUHU216DAVISVP2,2013-01-05 19:41:00,
2013-01-05 14:46:00,49.6,25.4,30.27,East,83,2.0,4.0,39,0.00,,,0.00,WUHU216DAVISVP2,2013-01-05 19:46:00,
2013-01-05 14:51:00,49.5,26.0,30.27,ENE,73,2.0,7.0,40,0.00,,,0.00,WUHU216DAVISVP2,2013-01-05 19:51:00,
2013-01-05 14:56:00,49.2,25.1,30.27,ENE,76,2.0,7.0,39,0.00,,,0.00,WUHU216DAVISVP2,2013-01-05 19:56:00,
2013-01-05 15:01:00,49.1,25.0,30.27,ENE,75,2.0,7.0,39,0.00,,,0.00,WUHU216DAVISVP2,2013-01-05 20:01:00,
2013-01-05 15:06:00,48.9,25.4,30.27,ENE,75,0.0,7.0,40,0.00,,,0.00,WUHU216DAVISVP2,2013-01-05 20:06:00,
2013-01-05 15:11:00,48.9,26.0,30.27,ENE,76,0.0,4.0,41,0.00,,,0.00,WUHU216DAVISVP2,2013-01-05 20:11:00,
2013-01-05 15:16:00,48.8,26.0,30.28,ENE,76,1.0,4.0,41,0.00,,,0.00,WUHU216DAVISVP2,2013-01-05 20:16:00,
2013-01-05 15:21:00,48.8,25.5,30.28,East,80,1.0,6.0,40,0.00,,,0.00,WUHU216DAVISVP2,2013-01-05 20:21:00,
2013-01-05 15:26:00,48.8,26.1,30.28,East,80,0.0,6.0,41,0.00,,,0.00,WUHU216DAVISVP2,2013-01-05 20:26:00,
2013-01-05 15:31:00,48.8,26.0,30.29,East,80,1.0,2.0,41,0.00,,,0.00,WUHU216DAVISVP2,2013-01-05 20:31:00,
2013-01-05 15:36:00,48.8,26.0,30.29,East,80,1.0,2.0,41,0.00,,,0.00,WUHU216DAVISVP2,2013-01-05 20:36:00,
2013-01-05 15:41:00,48.6,26.4,30.29,East,80,0.0,4.0,42,0.00,,,0.00,WUHU216DAVISVP2,2013-01-05 20:41:00,
2013-01-05 15:46:00,48.6,25.8,30.28,East,80,0.0,4.0,41,0.00,,,0.00,WUHU216DAVISVP2,2013-01-05 20:46:00,
2013-01-05 15:51:00,48.5,26.3,30.28,East,80,0.0,1.0,42,0.00,,,0.00,WUHU216DAVISVP2,2013-01-05 20:51:00,
2013-01-05 15:56:00,48.5,27.4,30.28,East,80,0.0,0.0,44,0.00,,,0.00,WUHU216DAVISVP2,2013-01-05 20:56:00,
2013-01-05 16:01:00,48.3,27.8,30.28,East,80,0.0,0.0,45,0.00,,,0.00,WUHU216DAVISVP2,2013-01-05 21:01:00,
2013-01-05 16:06:00,48.2,27.3,30.28,East,80,0.0,0.0,44,0.00,,,0.00,WUHU216DAVISVP2,2013-01-05 21:06:00,
2013-01-05 16:11:00,48.2,28.9,30.28,East,80,0.0,0.0,47,0.00,,,0.00,WUHU216DAVISVP2,2013-01-05 21:11:00,
2013-01-05 16:16:00,48.0,28.7,30.29,East,80,0.0,0.0,47,0.00,,,0.00,WUHU216DAVISVP2,2013-01-05 21:16:00,
2013-01-05 16:21:00,48.0,28.6,30.29,East,80,0.0,0.0,47,0.00,,,0.00,WUHU216DAVISVP2,2013-01-05 21:21:00,
2013-01-05 16:26:00,47.3,28.0,30.29,East,80,0.0,0.0,47,0.00,,,0.00,WUHU216DAVISVP2,2013-01-05 21:26:00,
2013-01-05 16:31:00,47.0,30.3,30.29,East,80,0.0,0.0,52,0.00,,,0.00,WUHU216DAVISVP2,2013-01-05 21:31:00,
2013-01-05 16:36:00,46.8,30.1,30.29,East,80,0.0,0.0,52,0.00,,,0.00,WUHU216DAVISVP2,2013-01-05 21:36:00,
2013-01-05 16:41:00,46.5,29.8,30.29,East,80,0.0,0.0,52,0.00,,,0.00,WUHU216DAVISVP2,2013-01-05 21:41:00,
2013-01-05 16:46:00,46.1,30.4,30.29,East,80,0.0,0.0,54,0.00,,,0.00,WUHU216DAVISVP2,2013-01-05 21:46:00,
2013-01-05 16:51:00,45.8,30.5,30.29,East,80,0.0,0.0,55,0.00,,,0.00,WUHU216DAVISVP2,2013-01-05 21:51:00,
2013-01-05 16:56:00,45.8,30.6,30.29,East,80,0.0,0.0,55,0.00,,,0.00,WUHU216DAVISVP2,2013-01-05 21:56:00,
2013-01-05 17:01:00,44.9,29.7,30.29,East,80,0.0,0.0,55,0.00,,,0.00,WUHU216DAVISVP2,2013-01-05 22:01:00,
2013-01-05 17:06:00,44.5,29.4,30.29,East,80,0.0,0.0,55,0.00,,,0.00,WUHU216DAVISVP2,2013-01-05 22:06:00,
2013-01-05 17:11:00,44.1,29.4,30.29,East,80,0.0,0.0,56,0.00,,,0.00,WUHU216DAVISVP2,2013-01-05 22:11:00,
2013-01-05 17:16:00,43.6,29.4,30.28,East,80,0.0,0.0,57,0.00,,,0.00,WUHU216DAVISVP2,2013-01-05 22:16:00,
2013-01-05 17:21:00,43.2,29.0,30.28,East,80,0.0,0.0,57,0.00,,,0.00,WUHU216DAVISVP2,2013-01-05 22:21:00,
2013-01-05 17:26:00,42.9,28.8,30.28,East,80,0.0,0.0,57,0.00,,,0.00,WUHU216DAVISVP2,2013-01-05 22:26:00,
2013-01-05 17:31:00,42.9,28.8,30.28,East,80,0.0,0.0,57,0.00,,,0.00,WUHU216DAVISVP2,2013-01-05 22:31:00,
2013-01-05 17:36:00,42.9,28.8,30.28,East,80,0.0,0.0,57,0.00,,,0.00,WUHU216DAVISVP2,2013-01-05 22:36:00,
2013-01-05 20:18:00,36.0,27.6,30.28,East,80,0.0,0.0,71,0.00,,,0.00,WUHU216DAVISVP2,2013-01-06 01:18:00,
2013-01-05 20:23:00,36.2,27.8,30.28,East,80,0.0,0.0,71,0.00,,,0.00,WUHU216DAVISVP2,2013-01-06 01:23:00,
2013-01-05 20:28:00,36.2,27.8,30.28,East,80,0.0,0.0,71,0.00,,,0.00,WUHU216DAVISVP2,2013-01-06 01:28:00,
2013-01-05 20:33:00,36.2,27.8,30.27,East,80,0.0,0.0,71,0.00,,,0.00,WUHU216DAVISVP2,2013-01-06 01:33:00,
2013-01-05 20:38:00,36.2,27.8,30.27,East,80,0.0,0.0,71,0.00,,,0.00,WUHU216DAVISVP2,2013-01-06 01:38:00,
2013-01-05 20:43:00,36.0,27.6,30.27,East,80,0.0,0.0,71,0.00,,,0.00,WUHU216DAVISVP2,2013-01-06 01:43:00,
2013-01-05 20:48:00,35.9,27.5,30.26,East,80,0.0,0.0,71,0.00,,,0.00,WUHU216DAVISVP2,2013-01-06 01:48:00,
2013-01-05 20:53:00,35.9,27.5,30.26,East,80,0.0,0.0,71,0.00,,,0.00,WUHU216DAVISVP2,2013-01-06 01:53:00,
2013-01-05 20:58:00,35.9,27.5,30.26,East,80,0.0,0.0,71,0.00,,,0.00,WUHU216DAVISVP2,2013-01-06 01:58:00,
2013-01-05 21:03:00,35.9,27.5,30.26,East,80,0.0,0.0,71,0.00,,,0.00,WUHU216DAVISVP2,2013-01-06 02:03:00,
2013-01-05 21:08:00,35.9,27.5,30.26,East,80,0.0,0.0,71,0.00,,,0.00,WUHU216DAVISVP2,2013-01-06 02:08:00,
2013-01-05 21:13:00,35.9,27.5,30.26,East,80,0.0,0.0,71,0.00,,,0.00,WUHU216DAVISVP2,2013-01-06 02:13:00,
2013-01-05 21:18:00,35.9,27.5,30.26,East,80,0.0,0.0,71,0.00,,,0.00,WUHU216DAVISVP2,2013-01-06 02:18:00,
2013-01-05 21:23:00,35.9,27.5,30.26,East,80,0.0,0.0,71,0.00,,,0.00,WUHU216DAVISVP2,2013-01-06 02:23:00,
2013-01-05 21:28:00,35.9,27.5,30.26,East,80,0.0,0.0,71,0.00,,,0.00,WUHU216DAVISVP2,2013-01-06 02:28:00,
2013-01-05 21:33:00,35.9,27.5,30.26,East,80,0.0,0.0,71,0.00,,,0.00,WUHU216DAVISVP2,2013-01-06 02:33:00,
2013-01-05 21:38:00,35.9,27.5,30.26,East,80,0.0,0.0,71,0.00,,,0.00,WUHU216DAVISVP2,2013-01-06 02:38:00,
2013-01-05 21:43:00,35.9,27.5,30.26,East,80,0.0,0.0,71,0.00,,,0.00,WUHU216DAVISVP2,2013-01-06 02:43:00,
2013-01-05 21:48:00,35.9,27.5,30.26,East,80,0.0,0.0,71,0.00,,,0.00,WUHU216DAVISVP2,2013-01-06 02:48:00,
2013-01-05 21:53:00,35.9,27.5,30.26,East,80,0.0,0.0,71,0.00,,,0.00,WUHU216DAVISVP2,2013-01-06 02:53:00,
2013-01-05 21:58:00,35.9,27.5,30.26,East,80,0.0,0.0,71,0.00,,,0.00,WUHU216DAVISVP2,2013-01-06 02:58:00,
2013-01-05 22:03:00,35.9,27.5,30.26,East,80,0.0,0.0,71,0.00,,,0.00,WUHU216DAVISVP2,2013-01-06 03:03:00,
2013-01-05 22:08:00,35.9,27.5,30.26,East,80,0.0,0.0,71,0.00,,,0.00,WUHU216DAVISVP2,2013-01-06 03:08:00,
2013-01-05 22:13:00,35.9,27.5,30.26,North,359,0.0,0.0,71,0.00,,,0.00,WUHU216DAVISVP2,2013-01-06 03:13:00,
2013-01-05 22:18:00,35.9,27.5,30.27,North,359,0.0,0.0,71,0.00,,,0.00,WUHU216DAVISVP2,2013-01-06 03:18:00,
2013-01-05 22:23:00,35.9,27.5,30.27,East,80,0.0,0.0,71,0.00,,,0.00,WUHU216DAVISVP2,2013-01-06 03:23:00,
2013-01-05 22:28:00,35.9,27.5,30.27,East,80,0.0,0.0,71,0.00,,,0.00,WUHU216DAVISVP2,2013-01-06 03:28:00,
2013-01-05 22:33:00,35.9,27.4,30.26,East,80,0.0,0.0,71,0.00,,,0.00,WUHU216DAVISVP2,2013-01-06 03:33:00,
2013-01-05 22:38:00,35.9,27.5,30.26,East,80,0.0,0.0,71,0.00,,,0.00,WUHU216DAVISVP2,2013-01-06 03:38:00,
2013-01-05 22:43:00,35.9,27.5,30.26,East,80,0.0,0.0,71,0.00,,,0.00,WUHU216DAVISVP2,2013-01-06 03:43:00,
2013-01-05 22:48:00,35.9,27.5,30.25,East,80,0.0,0.0,71,0.00,,,0.00,WUHU216DAVISVP2,2013-01-06 03:48:00,
2013-01-05 22:53:00,35.9,27.5,30.25,East,80,0.0,0.0,71,0.00,,,0.00,WUHU216DAVISVP2,2013-01-06 03:53:00,
2013-01-05 22:58:00,35.9,27.5,30.25,East,80,0.0,0.0,71,0.00,,,0.00,WUHU216DAVISVP2,2013-01-06 03:58:00,